Date String (YYYY-MM-DD hh:mm:ss) UTC,Instrument flags,Ambient pressure (hPa),Sample flow (lpm),Bypass flow (lpm),Sample temperature (°C),Ambient temperature (°C),ASC tube jacket temperature (°C),LED temperature (°C),Box temperature (°C),Sample RH (%),Span deviation,Mass concentration (μg/m³),Mass concentration (μg/m³),Mass concentration (μg/m³)
DateTimeUTC,F1_M11,P_M11,Q1_M11,Q2_M11,T1_M11,T2_M11,T3_M11,T4_M11,T5_M11,U1_M11,ZSPAN_M11,X0_M11,X2_M11,X1_M11
2022-08-31 01:00:00,,0831.3,5.01,0.00,29.3,26.7,00.0,37.9,31.0,20.0,0000.0,0018.17,0005.74,0004.66
2022-08-31 01:01:00,,0831.2,4.99,0.00,29.3,27.1,00.0,37.9,31.0,20.1,0000.0,0017.78,0005.73,0004.67
2022-08-31 01:02:00,,0831.2,5.01,0.00,29.3,27.4,00.0,37.9,31.0,20.1,0000.0,0018.81,0005.75,0004.67
2022-08-31 01:03:00,,0831.3,5.00,0.00,29.3,27.7,00.0,37.9,31.1,20.0,0000.0,0020.17,0005.79,0004.69
2022-08-31 01:04:00,,0831.3,5.00,0.00,29.3,28.0,00.0,37.9,31.2,20.0,0000.0,0020.25,0005.88,0004.70
2022-08-31 01:05:00,,0831.3,4.99,0.00,29.4,28.2,00.0,37.9,31.3,20.0,0000.0,0019.83,0005.89,0004.72
2022-08-31 01:06:00,,0831.3,5.00,0.00,29.4,28.3,00.0,38.0,31.3,19.9,0000.0,0019.29,0005.95,0004.74
2022-08-31 01:07:00,,0831.3,4.99,0.00,29.5,27.6,00.0,38.0,31.3,19.9,0000.0,0019.00,0006.01,0004.76
2022-08-31 01:08:00,,0831.3,5.00,0.00,29.4,26.5,00.0,38.0,31.2,19.9,0000.0,0018.36,0006.08,0004.77
2022-08-31 01:09:00,,0831.3,5.00,0.00,29.3,26.4,00.0,37.9,31.1,19.8,0000.0,0018.32,0006.04,0004.76
2022-08-31 01:10:00,,0831.3,4.99,0.00,29.3,26.7,00.0,37.9,31.0,20.2,0000.0,0018.17,0006.09,0004.76
2022-08-31 01:11:00,,0831.3,4.99,0.00,29.2,27.0,00.0,37.9,30.9,21.2,0000.0,0017.59,0006.09,0004.76
2022-08-31 01:12:00,,0831.2,5.01,0.00,29.2,27.3,00.0,37.9,31.0,20.8,0000.0,0018.00,0006.13,0004.76
2022-08-31 01:13:00,,0831.2,5.01,0.00,29.3,27.6,00.0,37.9,31.0,20.8,0000.0,0016.52,0006.12,0004.77
2022-08-31 01:14:00,,0831.3,5.00,0.00,29.3,27.9,00.0,37.9,31.2,20.8,0000.0,0015.10,0006.05,0004.77
2022-08-31 01:15:00,,0831.2,5.00,0.00,29.3,28.1,00.0,37.9,31.3,20.9,0000.0,0015.31,0005.98,0004.77
2022-08-31 01:16:00,,0831.2,5.00,0.00,29.4,28.3,00.0,37.9,31.3,20.7,0000.0,0015.71,0006.02,0004.77
2022-08-31 01:17:00,,0831.2,5.01,0.00,29.4,28.2,00.0,38.0,31.4,20.3,0000.0,0016.43,0006.04,0004.79
2022-08-31 01:18:00,,0831.2,4.98,0.00,29.4,27.1,00.0,38.0,31.3,20.2,0000.0,0017.35,0006.04,0004.78
2022-08-31 01:19:00,,0831.2,5.00,0.00,29.4,26.3,00.0,38.0,31.2,20.3,0000.0,0017.22,0006.00,0004.78
2022-08-31 01:20:00,,0831.2,4.99,0.00,29.3,26.4,00.0,37.9,31.1,20.3,0000.0,0017.81,0006.00,0004.80
2022-08-31 01:21:00,,0831.2,5.01,0.00,29.3,26.7,00.0,37.9,31.0,20.3,0000.0,0018.22,0005.97,0004.80
2022-08-31 01:22:00,,0831.2,5.00,0.00,29.2,27.0,00.0,37.9,30.9,20.4,0000.0,0018.07,0006.02,0004.81
2022-08-31 01:23:00,,0831.2,4.99,0.00,29.3,27.4,00.0,37.9,31.0,20.4,0000.0,0016.97,0005.99,0004.83
2022-08-31 01:24:00,,0831.2,5.00,0.00,29.3,27.7,00.0,37.9,31.1,20.4,0000.0,0018.62,0006.02,0004.83
2022-08-31 01:25:00,,0831.2,5.01,0.00,29.3,27.9,00.0,37.9,31.2,20.3,0000.0,0019.40,0006.11,0004.84
2022-08-31 01:26:00,,0831.2,5.00,0.00,29.3,28.1,00.0,37.9,31.2,20.3,0000.0,0019.03,0006.15,0004.85
2022-08-31 01:27:00,,0831.2,4.99,0.00,29.4,28.3,00.0,37.9,31.3,20.3,0000.0,0018.62,0006.13,0004.85
2022-08-31 01:28:00,,0831.2,5.01,0.00,29.4,28.4,00.0,38.0,31.4,20.3,0000.0,0018.49,0006.12,0004.85
2022-08-31 01:29:00,,0831.2,4.98,0.00,29.5,27.4,00.0,38.0,31.3,20.3,0000.0,0017.63,0006.12,0004.87
2022-08-31 01:30:00,,0831.2,5.02,0.00,29.4,26.3,00.0,38.0,31.2,20.3,0000.0,0018.09,0006.13,0004.87
2022-08-31 01:31:00,,0831.2,4.98,0.00,29.3,26.3,00.0,37.9,31.1,20.4,0000.0,0017.68,0006.15,0004.86
2022-08-31 01:32:00,,0831.2,5.00,0.00,29.3,26.6,00.0,37.9,31.0,20.5,0000.0,0017.39,0006.16,0004.87
2022-08-31 01:33:00,,0831.2,5.00,0.00,29.2,26.9,00.0,37.9,30.9,20.5,0000.0,0018.44,0006.16,0004.87
2022-08-31 01:34:00,,0831.4,5.00,0.00,29.2,27.2,00.0,37.9,31.0,20.6,0000.0,0018.76,0006.21,0004.87
2022-08-31 01:35:00,,0831.2,5.00,0.00,29.2,27.5,00.0,37.9,31.0,20.7,0000.0,0017.30,0006.18,0004.87
2022-08-31 01:36:00,,0831.2,5.00,0.00,29.3,27.8,00.0,37.9,31.1,20.9,0000.0,0016.74,0006.14,0004.88
2022-08-31 01:37:00,,0831.2,5.01,0.00,29.3,28.0,00.0,37.9,31.2,21.1,0000.0,0017.03,0006.12,0004.88
2022-08-31 01:38:00,,0831.2,4.99,0.00,29.4,28.2,00.0,37.9,31.3,21.3,0000.0,0018.57,0006.16,0004.88
2022-08-31 01:39:00,,0831.3,5.01,0.00,29.4,28.4,00.0,38.0,31.4,21.4,0000.0,0018.29,0006.15,0004.88
2022-08-31 01:40:00,,0831.2,5.01,0.00,29.5,28.2,00.0,38.0,31.4,21.5,0000.0,0018.05,0006.17,0004.89
2022-08-31 01:41:00,,0831.2,5.00,0.00,29.4,27.0,00.0,38.0,31.3,21.7,0000.0,0017.82,0006.23,0004.90
2022-08-31 01:42:00,,0831.2,5.00,0.00,29.4,26.2,00.0,38.0,31.2,21.6,0000.0,0017.95,0006.27,0004.92
2022-08-31 01:43:00,,0831.2,4.99,0.00,29.3,26.3,00.0,37.9,31.1,21.7,0000.0,0019.05,0006.32,0004.95
2022-08-31 01:44:00,,0831.2,5.01,0.00,29.3,26.7,00.0,37.9,31.0,21.9,0000.0,0018.96,0006.34,0004.97
2022-08-31 01:45:00,,0831.2,5.01,0.00,29.2,27.0,00.0,37.9,31.0,22.1,0000.0,0019.90,0006.35,0004.99
2022-08-31 01:46:00,,0831.2,5.01,0.00,29.2,27.3,00.0,37.9,31.0,22.2,0000.0,0020.05,0006.41,0005.00
2022-08-31 01:47:00,,0831.2,5.01,0.00,29.3,27.6,00.0,37.9,31.1,22.2,0000.0,0020.63,0006.44,0005.02
2022-08-31 01:48:00,,0831.2,4.99,0.00,29.3,27.8,00.0,37.9,31.2,22.2,0000.0,0019.97,0006.47,0005.04
2022-08-31 01:49:00,,0831.2,5.00,0.00,29.3,28.1,00.0,37.9,31.2,22.3,0000.0,0018.06,0006.43,0005.05
2022-08-31 01:50:00,,0831.2,5.00,0.00,29.4,28.2,00.0,37.9,31.3,22.2,0000.0,0017.73,0006.44,0005.08
2022-08-31 01:51:00,,0831.2,5.00,0.00,29.4,28.4,00.0,38.0,31.4,22.3,0000.0,0019.01,0006.42,0005.08
2022-08-31 01:52:00,,0831.2,5.00,0.00,29.5,28.4,00.0,38.0,31.4,22.3,0000.0,0019.18,0006.37,0005.08
2022-08-31 01:53:00,,0831.1,4.99,0.00,29.5,27.4,00.0,38.0,31.3,22.3,0000.0,0020.21,0006.38,0005.09
2022-08-31 01:54:00,,0831.2,5.01,0.00,29.4,26.3,00.0,38.0,31.2,22.4,0000.0,0019.64,0006.38,0005.10
2022-08-31 01:55:00,,0831.1,5.01,0.00,29.3,26.2,00.0,37.9,31.1,22.4,0000.0,0018.93,0006.36,0005.10
2022-08-31 01:56:00,,0831.2,4.99,0.00,29.3,26.5,00.0,37.9,31.0,22.4,0000.0,0018.08,0006.37,0005.11
2022-08-31 01:57:00,,0831.3,5.01,0.00,29.2,26.8,00.0,37.9,31.0,22.4,0000.0,0017.70,0006.38,0005.12
2022-08-31 01:58:00,,0831.3,5.00,0.00,29.2,27.2,00.0,37.9,31.0,22.5,0000.0,0017.18,0006.39,0005.13
2022-08-31 01:59:00,,0831.3,5.00,0.00,29.2,27.5,00.0,37.9,31.1,22.5,0000.0,0018.03,0006.39,0005.13
